Weather History for Russellville, AR

Change the Weather History Date:

Sunday, September 15, 2013

  Actual Average (KHOT) Record (KHOT)
Temperature  
Mean Temperature 72 °F -  
Max Temperature 91 °F 86 °F 104 °F (1980)
Min Temperature 52 °F 63 °F 50 °F (1993)
Cooling Degree Days 6    
Growing Degree Days 22 (Base 50)    
Moisture  
Dew Point 53 °F    
Average Humidity 57    
Maximum Humidity 89    
Minimum Humidity 29    
Precipitation  
Precipitation 0.00 in - - ()
Sea Level Pressure  
Sea Level Pressure 30.04 in    
Wind  
Wind Speed 0 mph (ESE)    
Max Wind Speed 5 mph    
Max Gust Speed -    
Visibility 10 miles    
Events      
Averages and records for this station are not official NWS values.
T = Trace of Precipitation, MM = Missing Value Source: NWS Daily Summary

Daily Weather History Graph

Daily Weather History Graph

Search for Another Location

Airport:

Trip Planner

Search our weather history database for the weather conditions in past years. The results will help you decide how hot, cold, wet, or windy it might be!

Date:

Astronomy

Sep. 15, 2013 Rise Set
Actual Time 6:55 AM CDT 7:18 PM CDT
Civil Twilight 6:29 AM CDT 7:44 PM CDT
Nautical Twilight 6:00 AM CDT 8:14 PM CDT
Astronomical Twilight 5:29 AM CDT 8:44 PM CDT
Moon 4:40 PM CDT (9/15) 2:41 AM CDT (9/15)
Length of Visible Light 13h 14m
Length of Day
12h 23m
Waxing Gibbous, 82% of the Moon is Illuminated
Sep 15
Waxing Gibbous
Sep 19
Full
Sep 26
Last Quarter
Oct 4
New
Oct 11
First Quarter

Hourly Weather History & Observations

Time (CDT) Temp. Heat Index Dew Point Humidity Pressure Visibility Wind Dir Wind Speed Gust Speed Precip Events Conditions
12:53 AM 57.0 °F - 50.0 °F 77% 30.04 in 10.0 mi Calm Calm - N/A   Clear
1:53 AM 55.9 °F - 50.0 °F 80% 30.04 in 10.0 mi Calm Calm - N/A   Clear
2:53 AM 54.0 °F - 48.9 °F 83% 30.03 in 10.0 mi Calm Calm - N/A   Clear
3:53 AM 53.1 °F - 48.9 °F 86% 30.04 in 10.0 mi Calm Calm - N/A   Clear
4:53 AM 52.0 °F - 48.9 °F 89% 30.04 in 10.0 mi Calm Calm - N/A   Clear
5:53 AM 52.0 °F - 48.9 °F 89% 30.04 in 10.0 mi Calm Calm - N/A   Clear
6:53 AM 52.0 °F - 48.9 °F 89% 30.06 in 10.0 mi Calm Calm - N/A   Clear
7:53 AM 55.9 °F - 52.0 °F 87% 30.07 in 10.0 mi Calm Calm - N/A   Clear
8:53 AM 64.9 °F - 52.0 °F 63% 30.08 in 10.0 mi Calm Calm - N/A   Clear
9:53 AM 70.0 °F - 50.0 °F 49% 30.09 in 10.0 mi Calm Calm - N/A   Clear
10:53 AM 75.0 °F - 48.9 °F 40% 30.08 in 10.0 mi Calm Calm - N/A   Clear
11:53 AM 79.0 °F - 48.9 °F 35% 30.08 in 10.0 mi Variable 3.5 mph - N/A   Clear
12:53 PM 84.0 °F - 51.1 °F 32% 30.06 in 10.0 mi Calm Calm - N/A   Clear
1:53 PM 86.0 °F - 52.0 °F 31% 30.05 in 10.0 mi Calm Calm - N/A   Clear
2:53 PM 88.0 °F 85.7 °F 53.1 °F 30% 30.02 in 10.0 mi Calm Calm - N/A   Clear
3:53 PM 91.0 °F 88.9 °F 55.0 °F 29% 30.00 in 10.0 mi ENE 4.6 mph - N/A   Clear
4:53 PM 91.0 °F 89.2 °F 55.9 °F 30% 29.99 in 10.0 mi SSE 3.5 mph - N/A   Clear
5:53 PM 90.0 °F 88.1 °F 55.9 °F 31% 30.00 in 10.0 mi Variable 3.5 mph - N/A   Clear
6:53 PM 87.1 °F 86.1 °F 57.9 °F 37% 30.00 in 10.0 mi ESE 3.5 mph - N/A   Clear
7:53 PM 80.1 °F 80.7 °F 59.0 °F 48% 30.01 in 10.0 mi Calm Calm - N/A   Clear
8:53 PM 78.1 °F - 59.0 °F 52% 30.02 in 10.0 mi Calm Calm - N/A   Clear
9:53 PM 75.9 °F - 59.0 °F 56% 30.03 in 10.0 mi Calm Calm - N/A   Clear
10:53 PM 73.0 °F - 59.0 °F 61% 30.04 in 10.0 mi Calm Calm - N/A   Clear
11:53 PM 73.0 °F - 59.0 °F 61% 30.04 in 10.0 mi Calm Calm - N/A   Clear